{"data":{"norad_id":48783,"intl_designator":"2021-045S","name":"ONEWEB-0234","alt_names":[],"object_type":"PAYLOAD","status":"ACTIVE","operator":null,"country":"UK","launch_date":"2021-05-28","launch_site_code":"VOSTO","launch_vehicle":null,"mission":null,"orbit_class":"UNKNOWN","rcs_meters":null,"size_class":null,"mass_kg":null,"dimensions":null,"purposes":["comms"],"wikipedia_slug":null,"has_3d_model":false,"image_url":null,"decayed_at":null,"tle_current":{"epoch":"2026-05-25T00:57:36.611712Z","epoch_age_seconds":65447,"freshness":"FRESH","line1":"1 48783U 21045S   26145.04000708 -.00000049  00000+0 -16383-3 0  9997","line2":"2 48783  87.8999 263.7894 0002023 124.6617 235.4705 13.15548312241438","mean_motion":13.15548312,"eccentricity":0.0002023,"inclination_deg":87.8999,"raan_deg":263.7894,"arg_perigee_deg":124.6617,"mean_anomaly_deg":235.4705,"bstar":-0.00016383,"rev_number":24143,"period_min":109.46006215544,"perigee_km":1200.2382661386,"apogee_km":1203.3050971912,"semimajor_km":7579.9086816649,"source":"CELESTRAK","updated_at":"2026-05-25T13:38:22.444796Z"}}}